Regional Weather Roundup
Issued by NWS Sterling, VA

Home | Current Version | Previous Version | Text Only | Print | Product List | Glossary Off
Versions: 1 2 3 4 5 6 7 8 9 10 11 12 13 14 15 16 17 18 19 20 21 22 23 24 25 26 27 28 29 30 31 32 33 34 35 36 37 38 39 40 41 42 43 44 45 46 47 48 49 50

282
ASUS41 KLWX 271011
RWRLWX

REGIONAL WEATHER ROUNDUP
NATIONAL WEATHER SERVICE BALTIMORE MD/WASHINGTON DC
600 AM EDT TUE JUN 27 2017

Note: "FAIR" indicates few or no clouds below 12,000 feet
with no significant weather and/or obstructions to visibility.
 TC=TEMPERATURE CELSIUS

 * =Non NWS site. Station does not report precipitation (e.g. rain,
    snow, etc.), thunder, or fog.

DCZ001-MDZ009-015-VAZ040>042-051-053>054-271100-
WASHINGTON METRO

CITY           SKY/WX    TMP DP  RH WIND       PRES   REMARKS
WASHINGTON NAT CLOUDY    70  51  51 NW9       30.03R
DULLES         CLOUDY    62  52  69 CALM      30.03R
ANDREWS AFB    CLOUDY    63  52  65 N5        30.01R
FT BELVOIR     CLOUDY    60  56  87 CALM      30.02R
QUANTICO       CLOUDY    64  57  78 W6        30.05R
COLLEGE PARK*  CLOUDY    61  55  79 CALM      30.01R
LEESBURG*      CLOUDY    63  54  72 CALM      30.04R
MANASSAS*      LGT RAIN  59  56  89 CALM      30.04R
GAITHERSBURG*  CLOUDY    60  52  74 CALM      30.04R

$$

MDZ006>007-011-014-271100-
BALTIMORE METRO

CITY           SKY/WX    TMP DP  RH WIND       PRES   REMARKS
BWI AIRPORT    MOCLDY    63  57  81 W3        30.01R
MD SCIENCE CTR   N/A     70  55  59 MISG      30.02R
MARTIN STATE   MOCLDY    64  57  77 W3        30.02R
ANNAPOLIS      PTCLDY    67  60  78 N3        30.00R
FORT MEADE*    CLOUDY    59  55  88 CALM      30.04R

$$

MDZ012-015-019>023-271100-
MARYLAND EASTERN SHORE

CITY           SKY/WX    TMP DP  RH WIND       PRES   REMARKS
OCEAN CITY     PTCLDY    70  66  87 SW6       29.99S
SALISBURY      CLEAR     63  60  90 CALM      29.99R
BAY BRIDGE AP* PTCLDY    70  59  68 NW7       29.99S
CAMBRIDGE*     PTCLDY    61  59  94 CALM      30.00R
EASTON*        PTCLDY    64  59  82 CALM      30.03S

$$

MDZ017>025-271100-
SOUTHERN MARYLAND

CITY           SKY/WX    TMP DP  RH WIND       PRES   REMARKS
PATUXENT RIVER CLOUDY    70  56  61 N7        29.99S
ST INIGOES     LGT RAIN  66  62  87 CALM      29.99R
LEONARDTOWN*   CLOUDY    61  59  94 CALM      30.02R

$$

MDZ003>005-271100-
NORTH CENTRAL MARYLAND

CITY           SKY/WX    TMP DP  RH WIND       PRES   REMARKS
FREDERICK*     MOCLDY    59  55  88 CALM      30.05R
HAGERSTOWN APT CLOUDY    63  53  70 NW5       30.04R
WESTMINSTER*   CLEAR     61  55  82 CALM      30.03R

$$

MDZ501>502-271100-
WESTERN MARYLAND

CITY           SKY/WX    TMP DP  RH WIND       PRES   REMARKS
OAKLAND*       NOT AVBL
CUMBERLAND*    CLOUDY    63  48  59 W5        30.08F

$$

VAZ025>031-271100-
SHENANDOAH VALLEY

CITY           SKY/WX    TMP DP  RH WIND       PRES   REMARKS
WINCHESTER*    MOCLDY    61  46  59 W5        30.04R
FRONT ROYAL*   PTCLDY    57  52  82 S3        30.03S
LURAY*         CLOUDY    55  52  88 CALM      30.04F
NEW MARKET*    CLOUDY    54  52  91 CALM      30.05S
STAUNTON*      CLOUDY    50  49  96 CALM      30.08S
WAYNESBORO*    CLOUDY    62  47  59 W6        30.07S

$$

WVZ021-048>050-054>055-271100-
EASTERN WEST VIRGINIA PANHANDLE

CITY           SKY/WX    TMP DP  RH WIND       PRES   REMARKS
MARTINSBURG    CLOUDY    66  48  52 W12       30.03R
PETERSBURG*    CLOUDY    57  55  92 W3        30.06R

$$

VAZ036>039-050-271100-
CENTRAL FOOTHILLS

CITY           SKY/WX    TMP DP  RH WIND       PRES   REMARKS
CHARLOTTESVILL CLOUDY    66  51  58 CALM      30.03S
CULPEPER*      CLOUDY    60  58  94 N5        30.04R
ORANGE*        CLOUDY    59  55  88 CALM      30.03R
GORDONSVILLE*  CLOUDY    60  56  88 CALM      30.03R
WARRENTON*     CLOUDY    60  55  85 CALM      30.02F

$$

VAZ055>057-271100-
NORTH AND CENTRAL PIEDMONT

CITY           SKY/WX    TMP DP  RH WIND       PRES   REMARKS
FREDERICKSBRG* CLOUDY    62  62 100 CALM      30.03R
STAFFORD*      LGT RAIN  58  58  99 CALM      30.08R

$$

NCZ024-NYZ072-PAZ021-071-VAZ022-071-271100-
OTHER REGIONAL OBSERVATIONS

CITY           SKY/WX    TMP DP  RH WIND       PRES   REMARKS
NEW YORK CITY  LGT RAIN  61  60  97 CALM      30.04S FOG
PHILADELPHIA   PTCLDY    62  59  90 E5        30.00R
PITTSBURGH     PTCLDY    54  51  90 CALM      30.02S
ROANOKE        PTCLDY    61  51  70 W6        30.08S
RICHMOND       MOCLDY    65  57  75 N6        30.02R
RALEIGH        MOCLDY    63  60  90 CALM      30.04R

$$

ANZ530>537-271100-
MARINE OBSERVATIONS

STATION/POSITION TIME  TEMP    WIND        PRES
                       AIR SEA DIR/SP/G
                 (UTC) (F)     (DEG/KT/KT) (MB)
THOMAS PT LIGHT  1000   70 77  340/  9/ 10   N/A
BALT KEY BRIDGE  0948   68     340/  5/  6 1015.9R
COVE POINT       0948   73     360/ 11/ 15 1016.1S
LEWISETTA        0948   68 80  280/  5/  6 1015.8R
SOLOMONS ISLAND  0948   70 78  340/  4/  5   N/A
PINEY POINT      0948           20/  3/  3   N/A

$$





USA.gov is the U.S. government's official web portal to all federal, state and local government web resources and services.